sat.trackr.live / text

‹ back to catalog

DMSP 5D-3 F18 (USA 210)

NORAD 35951 · 2009-057A

PAYLOAD ACTIVE UNKNOWN

§ Identity

Operator
Country
US
Launch date
2009-10-18
Launch site
AFWTR
Launch vehicle
Mass (kg)
RCS (m²)
3.98

Purposes: earth_obs

External: N2YO · Heavens-Above · Gunter

§ Orbital elements

Epoch: 2026-09-20T04:21:38.434176Z

Period
101.77 min
Inclination
98.9157°
Eccentricity
0.0010892
Mean motion
14.14943067 rev/d
Perigee alt
834.6 km
Apogee alt
850.4 km
Semi-major
7,220.6 km
B*
9.9648e-5
RAAN
243.7949°
Arg perigee
347.6312°
Mean anomaly
12.4592°
Rev number
87,302

§ Raw data

DMSP 5D-3 F18 (USA 210)1 35951U 09057A   26263.18169484  .00000148  00000+0  99648-4 0  99962 35951  98.9157 243.7949 0010892 347.6312  12.4592 14.14943067873020

JSON: /api/v1/satellites/35951 · /tle

For live sub-satellite position, see the globe view (requires WebGL).

§ Visibility from observer

Set your observer location to see the next 7 days of passes ≥ 10°. The values pass through the URL so the page stays shareable.

No JS? Fill the form by hand. The geolocation button needs JavaScript.

§ Radio — SatNOGS DB

ModeDescriptionDownlinkUplink
FM Mode U - RTD1 400.328 MHz
FM Mode U - RTD2 400.822 MHz
FM RTD 2.253 GHz
FM S-band telemetry 2.208 GHz
BPSK S-band telemetry 2.268 GHz
FM S-band telemetry 2.254 GHz

6 transmitters · refreshed weekly from db.satnogs.org